Regional Weather Roundup
Issued by NWS

Home | Current Version | Previous Version | Text Only | Print | Product List | Glossary On
Versions: 1 2 3 4 5 6 7 8 9 10 11 12 13 14 15 16 17 18 19 20 21 22 23 24 25 26 27 28 29 30 31 32 33 34 35 36 37 38 39 40 41 42 43 44 45 46 47 48 49 50
000
ASUS45 KSLC 282310
RWRUT

UTAH REGIONAL WEATHER ROUNDUP
NATIONAL WEATHER SERVICE SALT LAKE CITY UT
500 PM MDT WED SEP 28 2016

UTZ001>011-023>025-290000-

NORTHERN UTAH

CITY           SKY/WX    TMP DP  RH WIND       PRES   REMARKS
BRIGHAM CITY     N/A     80  41  25 NW3       30.13F
DUGWAY         PTSUNNY   79  44  28 W3        30.12F
HILL AFB       SUNNY     78  49  34 NW7       30.14F
LOGAN          SUNNY     80  48  32 N5        30.13F
OGDEN          SUNNY     78  50  37 NW8       30.12F
PROVO AIRPORT  PTSUNNY   71  50  47 W5        30.13S
SALT LAKE CITY MOSUNNY   80  50  34 NW10      30.10F
VERNAL         SUNNY     78  40  25 CALM      30.21F
WENDOVER       SUNNY    N/A N/A N/A MISG        N/A
HEBER CITY     MOSUNNY   77  36  22 W3        30.16F
WEST JORDAN    MOSUNNY   77  48  36 NW14      30.13F

$$

UTZ012>022-026-027-290000-

SOUTHERN/CENTRAL UTAH

CITY           SKY/WX    TMP DP  RH WIND       PRES   REMARKS
BLANDING       CLOUDY    75  36  24 S10       30.34R
BRYCE CANYON   PTSUNNY   62  40  44 SE14      30.35S
CEDAR CITY     CLOUDY    63  50  62 SW10      30.22R
DELTA          CLOUDY    66  46  48 SW6       30.17R
MILFORD        CLOUDY    73  41  31 N16       30.16S
MOAB/CYNLANDS  PTSUNNY   84  35  17 N8        30.13S
PRICE          MOSUNNY   76  35  22 SE10      30.24F
ST GEORGE      MOCLDY    82  46  28 E12       30.07R

$$

REGIONAL REPORTS     COLORADO/ARIZONA

CITY           SKY/WX    TMP DP  RH WIND       PRES   REMARKS
CRAIG, CO      CLOUDY    81  27  14 VRB6      30.26S
GRAND JUNCTION CLOUDY    82  36  19 NW7       30.15F
RIFLE          CLOUDY    80  33  18 W12       30.19S
MONTROSE       SUNNY     78  36  21 N5        30.23S
CORTEZ         CLOUDY    77  37  23 S9G18     30.26S
PAGE, AZ       CLOUDY    79  45  29 S12       30.15F
GRAND CANYON   PTSUNNY   65  48  54 E10G18    30.29S
KINGMAN        MOSUNNY   83  46  27 SW8       30.06S
FLAGSTAFF      MOSUNNY   65  51  60 SW13      30.29F

$$

REGIONAL REPORTS    NEVADA/IDAHO/WYOMING

CITY           SKY/WX    TMP DP  RH WIND       PRES   REMARKS
LAS VEGAS, NV  PTSUNNY   87  42  20 W13       29.98F
ELY            PTSUNNY   75  32  20 VRB7      30.20F
ELKO           SUNNY     83  27  13 E5        30.08F
POCATELLO, ID  SUNNY     83  44  25 W8        30.12F
BURLEY         SUNNY     81  45  28 E6        30.06F
EVANSTON, WY   CLOUDY    73  33  23 SE8       30.30F
ROCK SPRINGS   SUNNY     74  28  18 NE5       30.31F

$$



USA.gov is the U.S. government's official web portal to all federal, state and local government web resources and services.